FENGYUN 3D (43010 NORAD) Tracking and Keplerian Element Data

This shows tracking and keplerian element data for the satellite.

Feedback or suggestion? Click here.




ElementValue
Catalog43010
NameFENGYUN 3D
Epoch Orbit9555
Epoch Day262.12158971
Epoch Year2019
RAAN199.9908
Inclination98.7177
Eccentricity0.0001997
Argument of Perigee116.8232
Mean Anonmoly243.3147
Mean Motion14.19726317
Decay Rate-2.8E-07
L11 43010U 17072A 19262.12158971 -.00000028 00000-0 72345-5 0 9996
L22 43010 98.7177 199.9908 0001997 116.8232 243.3147 14.19726317 95552

Live tracking and technical data element details for FENGYUN 3D (NORAD 43010). FENGYUN 3D can be tracked NOW for your location showing map with azimuth and elevation plus other details from your city location.

Track the satellite on the map from your city or location and see movement details for azimuth, elevation, latitude, longitude, range, height, and movement on the map or in text.







IsCatalogInMostPopularTable: catalog: 43010, numindb: 327
Update: records affected: 1



GetName: 43010 FENGYUN 3D

Hit Count: updated at: Thu, 19 Sep 2019 16:45:50 GMT